This demonstration page uses our WeatherBlox Daily Observations layout. Learn more.

Left ArrowRight Arrow

44.89941, -97.11507

Hourly Observations for July 15, 2016

Temp ( °F °C ) Dew Point ( °F °C ) Humidity (%) Winds ( mph kmh ) Pressure ( in mb ) Visibility ( mi km ) Precip ( " mm )
12:53 am 00:53 Clear 54 12.2 49 9.4 83 83 Calm 30.11 1020 10 16 0.00 0.00
1:53 am 01:53 Clear 52 11.1 49 9.4 89 89 Calm 30.12 1020 10 16 0.00 0.00
2:53 am 02:53 Clear 51 10.6 48 8.9 89 89 WSW 7 11 30.12 1020 10 16 0.00 0.00
3:53 am 03:53 Clear 52 11.1 49 9.4 89 89 Calm 30.12 1020 10 16 0.00 0.00
4:53 am 04:53 Clear 50 10 48 8.9 93 93 ESE 3 6 30.09 1019 10 16 0.00 0.00
5:53 am 05:53 Clear 50 10 47 8.3 89 89 Calm 30.13 1020 10 16 0.00 0.00
6:53 am 06:53 Cloudy 53 11.7 50 10 89 89 Calm 30.15 1021 10 16 0.00 0.00
7:53 am 07:53 Mostly Sunny 59 15 54 12.2 83 83 NNE 3 6 30.14 1021 10 16 0.00 0.00
8:53 am 08:53 Sunny 64 17.8 53 11.7 68 68 Calm 30.14 1021 10 16 0.00 0.00
9:53 am 09:53 Sunny 67 19.4 48 8.9 51 51 W 5 7 30.15 1021 10 16 0.00 0.00
10:53 am 10:53 Sunny 69 20.6 45 7.2 42 42 VRB 3 6 30.14 1021 10 16 0.00 0.00
11:53 am 11:53 Sunny 71 21.7 49 9.4 46 46 VRB 6 9 30.14 1021 10 16 0.00 0.00
12:53 pm 12:53 Sunny 72 22.2 48 8.9 43 43 VRB 3 6 30.13 1020 10 16 0.00 0.00
1:53 pm 13:53 Sunny 74 23.3 50 10 43 43 W 10 17 30.12 1020 10 16 0.00 0.00
2:53 pm 14:53 Partly Cloudy 73 22.8 48 8.9 41 41 SW 9 15 30.11 1020 10 16 0.00 0.00
3:53 pm 15:53 Sunny 75 23.9 49 9.4 40 40 Calm 30.09 1019 10 16 0.00 0.00
4:53 pm 16:53 Partly Cloudy 75 23.9 49 9.4 40 40 WSW 8 13 30.08 1019 10 16 0.00 0.00
5:53 pm 17:53 Mostly Cloudy 73 22.8 51 10.6 46 46 Calm 30.07 1018 10 16 0.00 0.00
6:53 pm 18:53 Partly Cloudy 74 23.3 50 10 43 43 W 6 9 30.05 1018 10 16 0.00 0.00
7:53 pm 19:53 Mostly Sunny 74 23.3 50 10 43 43 Calm 30.04 1017 10 16 0.00 0.00
8:53 pm 20:53 Partly Cloudy 69 20.6 54 12.2 59 59 ENE 3 6 30.04 1017 10 16 0.00 0.00
9:53 pm 21:53 Mostly Clear 67 19.4 54 12.2 63 63 Calm 30.05 1018 10 16 0.00 0.00
10:53 pm 22:53 Clear 65 18.3 54 12.2 68 68 SSE 6 9 30.06 1018 10 16 0.00 0.00
11:53 pm 23:53 Clear 61 16.1 53 11.7 75 75 SE 3 6 30.06 1018 10 16 0.00 0.00

Powered by AerisWeather